Sevilla, Spain

2:03 AM CET on January 22, 2018 (GMT +0100)
San Pablo

Weather History for LEZL - November, 2012

Change the Weather History Date:

Monday, November 5, 2012

  Actual Average Record
Temperature  
Mean Temperature 56 °F -  
Max Temperature 62 °F 65 °F 80 °F (2007)
Min Temperature 51 °F 47 °F 44 °F (2014)
Degree Days  
Heating Degree Days 8    
Growing Degree Days 6 (Base 50)    
Moisture  
Dew Point 47 °F    
Average Humidity 69    
Maximum Humidity 82    
Minimum Humidity 55    
Precipitation  
Precipitation 0.00 in - - ()
Sea Level Pressure  
Sea Level Pressure 30.04 in    
Wind  
Wind Speed 6 mph ()    
Max Wind Speed 14 mph    
Max Gust Speed -    
Visibility 6.2 miles    
Events      
Averages and records for this station are not official NWS values.
T = Trace of Precipitation, MM = Missing Value Source: Averaged Metar Reports

Daily Weather History Graph

Daily Weather History Graph

Search for Another Location

Airport or City:

Trip Planner

Search our weather history database for the weather conditions in past years. The results will help you decide how hot, cold, wet, or windy it might be!

Date:

Astronomy

Nov. 05, 2012 Rise Set
Actual Time 7:52 AM CET 6:21 PM CET
Civil Twilight 7:25 AM CET 6:48 PM CET
Nautical Twilight 6:54 AM CET 7:19 PM CET
Astronomical Twilight 6:23 AM CET 7:50 PM CET
Moon 11:44 PM CET (11/5) 1:03 PM CET (11/5)
Length of Visible Light 11h 22m
Length of Day
10h 28m
Waning Gibbous, 65% of the Moon is Illuminated
Nov 5
Waning Gibbous
Nov 7
Last Quarter
Nov 13
New
Nov 20
First Quarter
Nov 28
Full

Hourly Weather History & Observations

Time (CET) Temp. Dew Point Humidity Pressure Visibility Wind Dir Wind Speed Gust Speed Precip Events Conditions
12:00 AM 62.6 °F 51.8 °F 68% 29.95 in 6.2 mi NNW 13.8 mph - N/A   Partly Cloudy
12:30 AM 62.6 °F 51.8 °F 68% 29.95 in 6.2 mi NNW 5.8 mph - N/A   Partly Cloudy
1:00 AM 60.8 °F 55.4 °F 82% 29.98 in 6.2 mi WNW 3.5 mph - N/A   Partly Cloudy
4:30 AM 59.0 °F 51.8 °F 77% 30.01 in - NNW 5.8 mph - N/A   Clear
5:00 AM 57.2 °F 48.2 °F 72% 30.04 in - North 8.1 mph - N/A   Clear
5:30 AM 55.4 °F 48.2 °F 77% 30.04 in - NNE 6.9 mph - N/A   Clear
6:00 AM 55.4 °F 46.4 °F 72% 30.04 in - North 9.2 mph - N/A   Clear
6:30 AM 53.6 °F 46.4 °F 77% 30.04 in - North 9.2 mph - N/A   Clear
7:00 AM 53.6 °F 44.6 °F 72% 30.06 in - NNE 8.1 mph - N/A   Clear
7:30 AM 51.8 °F 44.6 °F 76% 30.06 in - NNE 6.9 mph - N/A   Clear
8:00 AM 51.8 °F 44.6 °F 76% 30.06 in - NNE 4.6 mph - N/A   Clear
8:30 AM 51.8 °F 42.8 °F 71% 30.06 in - NNE 8.1 mph - N/A   Clear
9:00 AM 53.6 °F 42.8 °F 67% 30.06 in - NNE 10.4 mph - N/A   Clear
9:30 AM 53.6 °F 42.8 °F 67% 30.09 in - North 8.1 mph - N/A   Clear
10:00 AM 55.4 °F 41.0 °F 58% 30.09 in - North 9.2 mph - N/A   Clear
10:30 AM 55.4 °F 42.8 °F 63% 30.09 in - North 6.9 mph - N/A   Clear
11:00 AM 57.2 °F 42.8 °F 59% 30.09 in - NNE 4.6 mph - N/A   Clear
11:30 AM 57.2 °F 42.8 °F 59% 30.09 in - East 3.5 mph - N/A   Clear
12:30 PM 59.0 °F 44.6 °F 59% 30.06 in - ENE 3.5 mph - N/A   Clear
1:00 PM 59.0 °F 44.6 °F 59% 30.06 in - Variable 2.3 mph - N/A   Clear
1:30 PM 60.8 °F 46.4 °F 59% 30.06 in - NE 4.6 mph - N/A   Clear
2:00 PM 60.8 °F 46.4 °F 59% 30.06 in - ENE 3.5 mph - N/A   Clear
2:30 PM 60.8 °F 46.4 °F 59% 30.04 in - ENE 4.6 mph - N/A   Clear
3:00 PM 60.8 °F 46.4 °F 59% 30.04 in - ENE 5.8 mph - N/A   Clear
3:30 PM 60.8 °F 46.4 °F 59% 30.04 in - NE 4.6 mph - N/A   Clear
4:00 PM 60.8 °F 44.6 °F 55% 30.04 in - East 5.8 mph - N/A   Clear
4:30 PM 60.8 °F 46.4 °F 59% 30.04 in - NE 2.3 mph - N/A   Clear
5:00 PM 60.8 °F 44.6 °F 55% 30.04 in - NE 3.5 mph - N/A   Clear
5:30 PM 60.8 °F 48.2 °F 63% 30.04 in - NNE 2.3 mph - N/A   Clear
6:00 PM 60.8 °F 50.0 °F 68% 30.04 in - NNE 2.3 mph - N/A   Clear
6:30 PM 59.0 °F 50.0 °F 72% 30.04 in - Variable 2.3 mph - N/A   Clear
7:00 PM 59.0 °F 50.0 °F 72% 30.04 in - NNW 4.6 mph - N/A   Clear
7:30 PM 59.0 °F 50.0 °F 72% 30.04 in - North 4.6 mph - N/A   Clear
8:00 PM 59.0 °F 50.0 °F 72% 30.04 in 6.2 mi Variable 1.2 mph - N/A   Scattered Clouds
8:30 PM 57.2 °F 51.8 °F 82% 30.04 in 6.2 mi East 4.6 mph - N/A   Scattered Clouds
9:00 PM 57.2 °F 51.8 °F 82% 30.04 in 6.2 mi Variable 2.3 mph - N/A   Scattered Clouds
9:30 PM 57.2 °F 50.0 °F 77% 30.04 in 6.2 mi North 3.5 mph - N/A   Partly Cloudy
10:00 PM 57.2 °F 50.0 °F 77% 30.04 in - NE 3.5 mph - N/A   Clear
10:30 PM 57.2 °F 50.0 °F 77% 30.06 in - NNE 3.5 mph - N/A   Clear
11:00 PM 57.2 °F 51.8 °F 82% 30.04 in - NE 3.5 mph - N/A   Clear
11:30 PM 57.2 °F 50.0 °F 77% 30.04 in - NNE 5.8 mph - N/A   Clear